Regional Weather Roundup
Issued by NWS

Home | Current Version | Previous Version | Text Only | Print | Product List | Glossary On
Versions: 1 2 3 4 5 6 7 8 9 10 11 12 13 14 15 16 17 18 19 20 21 22 23 24 25 26 27 28 29 30 31 32 33 34 35 36 37 38 39 40 41 42 43 44 45 46 47 48 49 50
000
ASUS43 KMKX 061820
RWRWI

WISCONSIN REGIONAL WEATHER ROUNDUP
NATIONAL WEATHER SERVICE MILWAUKEE/SULLIVAN WI
1200 PM CST FRI MAR 06 2015

NOTE: "FAIR" INDICATES FEW OR NO CLOUDS BELOW 12,000 FEET WITH NO
SIGNIFICANT WEATHER AND/OR OBSTRUCTIONS TO VISIBILITY.

WIZ001-002-006>008-014>016-023>028-061900-
NORTHWEST WISCONSIN

CITY           SKY/WX    TMP DP  RH WIND       PRES   REMARKS
SUPERIOR ARPT  SUNNY     28  12  51 W9        29.99F WCI  19
6HR MIN TEMP:  12; 6HR MAX TEMP:  28;

ASHLAND        SUNNY     26   8  46 SW12      29.97F WCI  16
6HR MIN TEMP:  10; 6HR MAX TEMP:  26;

HAYWARD        SUNNY     23   7  50 SW10      29.99S WCI  12
6HR MIN TEMP:  10; 6HR MAX TEMP:  23;

SIREN          SUNNY     26  10  52 SW6       30.03S WCI  19
6HR MIN TEMP:  15; 6HR MAX TEMP:  26;

CUMBERLAND     SUNNY     23  10  58 SW8       30.01S WCI  14
RICE LAKE      SUNNY     25  11  54 SW8       30.03F WCI  16
6HR MIN TEMP:   3; 6HR MAX TEMP:  24;

CHETEK         SUNNY     25  10  53 SW8       30.03F WCI  16
6HR MIN TEMP:   1; 6HR MAX TEMP:  25;

LADYSMITH      SUNNY     23   9  54 SW9       30.02F WCI  13
6HR MIN TEMP:   5; 6HR MAX TEMP:  22;

EAU CLAIRE     SUNNY     24  10  55 SW13      30.06F WCI  12
6HR MIN TEMP:   5; 6HR MAX TEMP:  24;

MENOMONIE      SUNNY     29  13  52 SW9       30.05F WCI  20
6HR MIN TEMP:  10; 6HR MAX TEMP:  27;

NEW RICHMOND   SUNNY     27  12  53 SW7       30.04S WCI  19
6HR MIN TEMP:  10; 6HR MAX TEMP:  27;

OSCEOLA        SUNNY     30  14  51 SW7       30.06F WCI  23
6HR MIN TEMP:  11; 6HR MAX TEMP:  30;

$$

WIZ003>005-009-010-017-018-061900-
NORTH CENTRAL WISCONSIN

CITY           SKY/WX    TMP DP  RH WIND       PRES   REMARKS
MANITOWISH WTR SUNNY     21   6  52 SW10      29.93F WCI  10
6HR MIN TEMP:  -3; 6HR MAX TEMP:  21;

ARBOR VITAE    MOSUNNY   22   7  52 SW8       29.94F WCI  12
6HR MIN TEMP:   0; 6HR MAX TEMP:  22;

WOODRUFF       MOSUNNY   22   7  52 SW8       29.94F WCI  12
6HR MIN TEMP:   0; 6HR MAX TEMP:  22;

RHINELANDER    MOSUNNY   20   6  55 W13       29.97F WCI   7
6HR MIN TEMP:   1; 6HR MAX TEMP:  20;

EAGLE RIVER    SUNNY     21   3  45 SW14      29.94F WCI   8
6HR MIN TEMP:  -1; 6HR MAX TEMP:  21;

LAND O LAKES   MOSUNNY   24   5  44 SW12      29.92F WCI  13
6HR MIN TEMP:  -1; 6HR MAX TEMP:  24;

PHILLIPS       SUNNY     21   7  54 SW9       29.96F WCI  10
6HR MIN TEMP:   1; 6HR MAX TEMP:  19;

TOMAHAWK       FAIR      21   5  49 CALM      30.00F
6HR MIN TEMP:  -1; 6HR MAX TEMP:  21;

MEDFORD        CLOUDY    19   8  61 SW10      30.01F WCI   8
6HR MIN TEMP:   4; 6HR MAX TEMP:  19;

MERRILL        PTSUNNY   22   7  54 SW13      30.02F WCI   9
6HR MIN TEMP:  -7; 6HR MAX TEMP:  22;

$$

WIZ029-030-035-036-043>047-061900-
CENTRAL WISCONSIN

CITY           SKY/WX    TMP DP  RH WIND       PRES   REMARKS
WAUSAU         CLOUDY    21   8  57 SW10      30.03F WCI  10
6HR MIN TEMP:  -2; 6HR MAX TEMP:  21;

MOSINEE        PTSUNNY   23  10  58 SW12      30.06F WCI  12
MARSHFIELD     CLOUDY    24   9  52 SW14      30.05F WCI  12
6HR MIN TEMP:  -1; 6HR MAX TEMP:  24;

STEVENS POINT  PTSUNNY   22   7  53 SW12      30.08F WCI  10
6HR MIN TEMP:  -1; 6HR MAX TEMP:  22;

WAUPACA        PTSUNNY   30   9  41 SW15      30.10F WCI  19
6HR MIN TEMP:   1; 6HR MAX TEMP:  31;

WAUTOMA        PTSUNNY   28  11  49 SW15      30.12F WCI  16
6HR MIN TEMP: -10; 6HR MAX TEMP:  28;

WISC RAPIDS    CLOUDY    25   8  48 SW15      30.10F WCI  13
6HR MIN TEMP:  -1; 6HR MAX TEMP:  25;

CAMP DOUGLAS   PTSUNNY   27  12  54 SW10      30.10F WCI  17
$$

WIZ011>013-019>022-031-037>040-048>050-061900-
NORTHEAST WISCONSIN

CITY           SKY/WX    TMP DP  RH WIND       PRES   REMARKS
ANTIGO         CLOUDY    19   7  61 SW15G22   30.01F WCI   4
6HR MIN TEMP:  -4; 6HR MAX TEMP:  19;

SHAWANO        CLOUDY    27   8  44 SW10G18   30.09F WCI  17
6HR MIN TEMP:   1; 6HR MAX TEMP:  27;

OCONTO         CLOUDY    24   8  50 SW14G22   30.10F WCI  11
6HR MIN TEMP:   1; 6HR MAX TEMP:  24;

STURGEON BAY   CLOUDY    25   7  46 SW22G33   30.11F WCI  10
6HR MIN TEMP:   1; 6HR MAX TEMP:  25;

GREEN BAY      CLOUDY    21   9  59 SW17G29   30.13F WCI   7
6HR MIN TEMP:   1; 6HR MAX TEMP:  21;

MANITOWOC      SUNNY     26   9  48 S20G28    30.14F WCI  12
6HR MIN TEMP:   3; 6HR MAX TEMP:  26;

APPLETON       MOSUNNY   23   9  54 S17G25    30.12F WCI   9
CLINTONVILLE   CLOUDY    27  10  50 SW14      30.09F WCI  15
OSHKOSH        PTSUNNY   24   9  52 SW18G29   30.12F WCI  10
6HR MIN TEMP:   1; 6HR MAX TEMP:  24;

$$

WIZ032>034-041-042-053>061-061900-
SOUTHWEST WISCONSIN

CITY           SKY/WX    TMP DP  RH WIND       PRES   REMARKS
LA CROSSE      MOSUNNY   28  15  58 S15       30.13F WCI  16
6HR MIN TEMP:   7; 6HR MAX TEMP:  28;

SPARTA         MOSUNNY   28  11  49 SW7G18    30.12F WCI  21
6HR MIN TEMP:   7; 6HR MAX TEMP:  28;

VIROQUA        MOSUNNY   25  13  59 SW13      30.11F WCI  14
6HR MIN TEMP:   5; 6HR MAX TEMP:  25;

BOSCOBEL       SUNNY     27  11  51 S14       30.18F WCI  16
6HR MIN TEMP:  -9; 6HR MAX TEMP:  27; 6HR PCP: TRACE;

PRAIRIE DU CHI SUNNY     27  12  53 S8        30.18F WCI  18
6HR MIN TEMP:   6; 6HR MAX TEMP:  27;

PLATTEVILLE    SUNNY     23  13  64 S15G21    30.19F WCI  10
6HR MIN TEMP:   2; 6HR MAX TEMP:  23;

$$

WIZ056-057-062-063-064-067-068-061900-
SOUTH CENTRAL WISCONSIN

CITY           SKY/WX    TMP DP  RH WIND       PRES   REMARKS
REEDSBURG      PTSUNNY   24  11  57 SW14      30.14F WCI  12
6HR MIN TEMP:   3; 6HR MAX TEMP:  24;

BARABOO/DELLS  PTSUNNY   25  10  54 SW13G21   30.13F WCI  13
6HR MIN TEMP:   2; 6HR MAX TEMP:  25;

LONE ROCK      SUNNY     23  10  57 S15       30.18F WCI  10
6HR MIN TEMP:  -5; 6HR MAX TEMP:  23;

MINERAL POINT  SUNNY     23  10  58 S17       30.16F WCI   9
MADISON        MOSUNNY   23   8  52 S13G21    30.18F WCI  11
6HR MIN TEMP:   2; 6HR MAX TEMP:  23;

MIDDLETON      SUNNY     26   7  44 SW14G21   30.17F WCI  15
6HR MIN TEMP:   4; 6HR MAX TEMP:  26;

WATERTOWN      SUNNY     24  10  54 S13G20    30.19F WCI  12
6HR MIN TEMP:  -2; 6HR MAX TEMP:  24;

MONROE         FAIR      23  12  63 S17       30.19F WCI   9
JANESVILLE     SUNNY     25   9  50 S16G22    30.23F WCI  12
$$

WIZ051-052-058>065-066-070>072-061900-
SOUTHEAST WISCONSIN

CITY           SKY/WX    TMP DP  RH WIND       PRES   REMARKS
MILWAUKEE      MOSUNNY   23   6  48 SW24G31   30.24F WCI   7
6HR MIN TEMP:   0; 6HR MAX TEMP:  23;

WAUKESHA       SUNNY     21   7  53 S10G20    30.23F WCI  10
MILWAUKEE/TIMM SUNNY     25   5  42 MISG      30.23F
RACINE         MOSUNNY   23   7  50 SW21G28   30.27F WCI   8
6HR MIN TEMP:   0; 6HR MAX TEMP:  23;

BURLINGTON     SUNNY     21   7  55 S20G25    30.23F WCI   6
6HR MIN TEMP: -12; 6HR MAX TEMP:  21;

KENOSHA        PTSUNNY   24   8  50 SW18G26   30.26F WCI  10
6HR MIN TEMP:   1; 6HR MAX TEMP:  24;

FOND DU LAC    MOSUNNY   26   9  48 S17G28    30.14F WCI  13
6HR MIN TEMP:   4; 6HR MAX TEMP:  26;

SHEBOYGAN      CLOUDY    25   9  50 S18       30.17F WCI  11
6HR MIN TEMP:  -1; 6HR MAX TEMP:  25;

WEST BEND      MOSUNNY   27   7  43 S18G24    30.18F WCI  13
JUNEAU         MOSUNNY   24   9  52 S25G32    30.19F WCI   7
6HR MIN TEMP:   0; 6HR MAX TEMP:  24;

$$

LSZ147-162-061900-
LAKE SUPERIOR

STATION/POSITION TIME  TEMP    WIND        PRES    WAVE
                       AIR SEA DIR/SP/G            HT/PER
                 (UTC) (F)     (DEG/KT/KT) (MB)    (FT/S)
DEVILS ISLAND    1800   22     240/ 21/ 25 1015.3F
PORT WING        1700   23     260/ 11/ 19 1015.6
SAXON HARBOR     1700   23     190/  9/ 17 1015.6F
$$

LMZ867-665-643>646-061900-
LAKE MICHIGAN

STATION/POSITION TIME  TEMP    WIND        PRES    WAVE
                       AIR SEA DIR/SP/G            HT/PER


USA.gov is the U.S. government's official web portal to all federal, state and local government web resources and services.